Temperature
15 15 16 16 13 10 12 12 11 12 12 12 12 12 11 11 12 12 11 11 12 12 12 13 13 13 13 13 14 14 14 14 14 14 14 15 15 14 14 14 14 14 14 14 14 14 14 14 14
14 15 15 15 11 11 11 11 11 11 11 12 12 11 11 10 10 11 11 11 12 12 12 12 13 13 13 13 14 14 14 14 14 14 14 14 14 14 14 14 14 14 14 14 14 14 14 14 14
14 15 15 9 10 11 12 11 10 10 11 12 11 10 10 10 10 10 11 11 11 12 12 12 12 13 13 13 13 13 14 14 14 14 14 14 14 14 14 14 14 14 14 14 14 14 14 14 14
14 14 13 9 10 10 10 10 10 10 11 11 10 9 9 9 9 10 10 11 11 12 12 12 12 12 13 13 13 13 13 13 13 14 13 14 14 14 14 14 14 14 13 13 14 14 14 14 14
14 13 9 9 9 9 9 9 10 9 9 10 9 8 8 9 9 10 10 11 11 11 11 12 12 12 12 12 13 13 13 13 13 13 13 13 13 13 13 13 13 13 13 13 13 13 13 14 14
13 10 9 9 9 9 9 9 9 8 8 9 9 8 8 8 9 9 10 10 10 11 11 11 11 12 12 12 12 12 12 13 13 13 13 13 13 13 13 13 13 13 13 13 13 13 13 13 14
11 7 8 8 8 9 9 9 8 8 7 8 9 7 7 8 8 9 9 9 10 10 10 11 11 11 11 11 12 12 12 12 12 12 13 13 13 13 13 13 13 13 13 13 13 13 13 13 13
11 7 8 7 8 8 8 8 8 8 7 8 8 7 7 7 8 8 9 9 9 9 10 10 10 11 11 11 11 11 11 12 12 12 12 12 12 12 12 12 12 12 13 13 13 13 13 13 13
10 7 7 7 7 7 7 7 7 7 7 7 7 7 7 7 7 8 8 9 9 9 9 9 10 10 10 10 10 10 11 11 11 12 12 12 12 12 12 12 12 12 12 12 12 12 12 12 12
8 6 7 7 7 6 6 6 6 6 6 6 6 7 7 7 7 7 8 8 8 8 8 9 9 9 9 9 9 10 10 10 11 11 11 11 11 11 11 12 12 12 12 12 12 12 12 12 12
6 5 6 6 6 6 5 5 5 6 5 5 5 6 6 6 7 7 7 7 7 7 8 8 8 8 8 9 9 9 9 10 10 10 10 11 11 11 11 11 11 11 12 12 12 12 12 12 12
5 5 5 5 6 5 5 5 4 4 5 6 6 6 5 6 6 6 6 6 7 7 7 7 7 8 8 8 8 8 9 9 9 9 10 10 10 11 11 11 11 11 11 11 11 11 11 11 11
4 4 4 5 5 5 4 4 4 3 4 5 5 5 5 5 5 5 6 6 6 6 7 7 7 7 7 7 8 8 8 8 8 8 9 9 10 10 10 10 10 10 10 11 11 11 11 11 11
4 4 4 4 4 4 3 3 3 3 4 4 5 4 4 5 5 5 5 6 6 6 6 6 6 6 7 7 7 7 7 7 7 8 8 8 9 9 9 9 10 10 10 10 10 10 10 10 11
5 3 3 4 4 4 4 3 3 3 3 3 4 4 4 4 4 4 5 5 5 5 5 6 6 6 6 6 6 6 7 7 7 7 7 7 8 8 8 9 9 9 9 9 9 10 10 10 10
4 3 3 3 3 3 4 4 3 3 3 2 3 3 3 3 3 4 4 4 4 5 5 5 5 5 5 5 6 6 6 6 6 6 6 7 7 7 8 8 8 8 8 9 9 9 9 9 9
2 3 3 3 3 3 3 3 2 2 2 2 2 2 2 3 3 3 3 4 4 4 4 5 5 5 5 5 5 5 5 6 6 6 6 6 6 7 7 7 8 8 8 8 8 8 9 9 9
3 2 3 3 2 2 2 1 1 2 2 1 2 2 2 2 2 3 3 3 3 3 4 4 4 4 4 5 5 5 5 5 5 5 5 5 6 6 6 7 7 7 7 8 8 8 8 8 8
2 2 2 2 2 2 1 1 1 1 1 1 1 1 1 1 2 2 2 3 3 3 3 3 4 4 4 4 4 4 4 4 5 5 5 5 5 5 6 6 6 7 7 7 7 7 8 8 8
2 2 1 2 2 2 1 1 1 0 0 0 0 0 1 1 1 2 2 2 2 2 3 3 3 3 3 3 3 4 4 4 4 4 4 4 5 5 5 5 6 6 6 7 7 7 7 7 7
2 1 1 1 1 1 1 1 0 -0 -0 -0 -0 -0 -0 0 0 1 1 1 2 2 2 2 2 2 2 3 3 3 3 3 3 3 4 4 4 4 4 5 5 5 6 6 6 6 7 7 7
2 2 1 1 0 -0 1 1 1 -1 -1 -1 -1 -1 -0 -0 0 1 1 1 1 1 1 1 2 2 2 2 2 2 2 2 3 3 3 3 3 4 4 4 4 5 5 5 6 6 6 6 6
1 1 1 1 -0 -1 -1 -0 0 -2 -1 -2 -2 -1 -0 -0 -0 0 0 0 0 1 1 1 1 1 1 1 1 1 1 2 2 2 2 2 3 3 3 3 4 4 4 5 5 5 5 6 6
0 0 -0 -1 -1 -0 -1 -1 0 -2 -2 -2 -2 -2 -1 -1 -1 -0 -0 0 0 0 0 0 1 1 1 1 1 1 1 1 1 1 2 2 2 2 2 3 3 3 4 4 4 5 5 5 5
-0 -0 -0 0 -0 0 -1 -1 -1 -2 -3 -3 -3 -2 -1 -1 -1 -1 -1 -0 -0 -0 -0 -0 -0 -0 -0 -0 0 0 0 0 0 1 1 1 1 2 2 2 2 3 3 3 4 4 4 5 5
-1 -1 0 0 -0 -1 -2 -2 -2 -3 -3 -3 -3 -2 -2 -2 -1 -1 -1 -1 -1 -1 -1 -1 -1 -1 -1 -1 -1 -1 -1 -1 -0 -0 0 0 0 1 1 1 2 2 3 3 3 3 4 4 4
-1 -2 -2 -2 -3 -3 -2 -3 -3 -3 -3 -3 -3 -3 -2 -2 -2 -2 -2 -1 -1 -1 -1 -1 -1 -1 -1 -1 -1 -1 -1 -1 -1 -1 -1 -0 -0 0 1 1 1 2 2 2 2 3 3 3 4
-2 -3 -4 -2 -1 -1 -2 -3 -2 -3 -3 -4 -4 -3 -3 -2 -2 -2 -2 -2 -2 -2 -2 -2 -2 -2 -2 -2 -2 -2 -2 -2 -2 -2 -1 -1 -1 -0 0 0 1 1 1 2 2 2 2 3 3
-3 -3 -4 -4 -3 -2 -2 -1 -3 -3 -4 -4 -4 -3 -3 -3 -3 -3 -3 -2 -2 -2 -2 -2 -2 -2 -2 -2 -2 -2 -2 -2 -2 -2 -2 -1 -1 -1 -0 -0 -0 0 1 1 1 2 2 2 2
-4 -4 -4 -2 -3 -4 -4 -2 -4 -5 -5 -4 -4 -4 -3 -3 -3 -3 -3 -3 -3 -3 -3 -3 -3 -3 -3 -3 -3 -3 -3 -3 -3 -3 -2 -2 -2 -1 -1 -1 -1 -0 -0 0 0 1 1 1 1
Wind_Speed
11 6 3 4 5 4 2 2 1 0 1 1 2 4 5 4 3 2 2 4 6 5 4 4 7 9 9 10 10 10 10 10 10 10 10 11 11 12 12 12 12 12 12 13 13 14 14 14 14
5 3 5 5 4 2 3 2 2 1 1 2 3 4 4 3 2 2 3 5 5 5 5 5 7 9 10 10 9 10 10 10 10 10 10 10 10 11 11 11 11 11 11 12 13 13 13 13 13
3 5 4 4 3 6 4 2 3 0 2 2 3 4 3 2 2 1 3 3 5 6 6 5 8 9 10 11 11 10 10 9 9 10 9 9 9 10 10 10 10 10 10 11 12 12 12 12 13
3 5 5 4 4 5 3 1 1 1 3 4 3 3 2 3 2 2 2 4 5 6 7 7 8 9 10 10 10 11 10 9 9 9 9 9 9 9 9 9 10 10 10 10 11 11 11 12 12
4 4 4 1 4 3 1 1 2 2 1 2 3 3 2 3 4 4 3 5 5 6 8 8 10 10 10 10 10 10 11 10 9 9 9 9 8 8 8 9 9 9 9 10 10 10 11 11 11
4 4 3 4 5 2 1 1 2 2 1 2 3 3 2 3 5 4 4 5 6 7 8 8 10 11 11 10 9 10 10 11 10 9 8 8 8 7 8 8 8 9 9 9 9 10 10 10 11
4 4 3 3 2 1 1 1 2 2 1 1 1 3 1 3 4 3 4 5 7 8 9 9 9 9 10 10 10 9 10 10 10 9 8 7 7 7 7 7 7 8 8 9 9 9 9 10 10
4 4 2 2 3 2 1 1 1 2 1 1 2 4 1 1 2 4 5 5 6 8 9 10 10 10 9 8 9 10 9 9 10 10 9 8 6 6 6 6 6 7 8 8 8 8 8 9 9
3 3 3 4 4 2 2 2 1 2 3 2 2 2 1 2 3 5 5 5 6 7 8 9 10 10 10 8 8 9 9 9 9 8 9 8 6 5 5 6 6 6 7 7 7 7 8 8 8
3 3 4 1 1 2 1 2 1 2 2 2 3 4 4 4 5 5 5 4 4 5 5 7 8 9 9 8 7 7 7 8 8 7 8 7 6 4 5 5 6 6 6 6 6 7 7 7 7
2 3 2 1 1 1 1 2 2 2 1 2 2 2 4 4 5 4 3 2 2 2 3 5 7 8 8 8 7 6 6 6 7 7 6 6 6 4 4 4 4 5 5 5 5 6 6 6 5
2 2 1 1 2 1 0 0 2 0 2 1 3 5 5 4 3 3 2 2 2 2 3 4 7 7 8 7 6 6 5 5 5 5 6 5 4 4 3 3 3 3 3 4 4 4 4 5 4
1 1 1 2 4 2 2 1 1 2 2 1 4 5 5 4 2 2 2 2 3 3 3 4 5 6 6 6 6 5 5 4 4 4 4 4 3 3 2 2 2 2 3 3 3 3 3 3 3
1 1 1 2 2 1 0 3 1 3 0 2 4 4 4 4 2 2 3 3 3 3 3 3 4 6 6 5 5 4 4 4 4 3 3 3 2 2 3 1 1 1 2 2 2 3 2 2 2
1 2 3 2 1 0 1 4 4 3 1 2 3 3 3 2 2 2 1 2 2 3 3 3 3 5 5 4 4 4 4 4 4 3 3 3 3 2 2 2 0 0 1 2 2 2 2 2 1
2 2 2 3 0 0 1 7 3 2 3 3 3 3 3 2 2 1 2 2 3 3 4 4 4 4 4 4 4 4 4 4 4 4 3 3 3 3 2 2 1 1 1 2 1 2 2 1 1
4 1 2 3 0 0 3 6 3 2 4 4 4 4 3 1 1 2 2 2 2 2 3 4 4 3 4 4 4 4 4 4 4 5 4 4 4 4 3 2 2 2 1 1 2 1 2 2 1
2 2 3 4 2 1 4 7 4 2 4 5 4 3 2 2 1 1 2 2 2 2 3 3 4 4 4 4 3 3 3 4 5 5 5 5 5 5 4 3 3 2 1 2 2 2 2 2 2
2 3 5 5 2 2 5 7 6 3 4 3 3 3 3 2 1 1 2 2 3 3 3 3 4 4 3 2 2 2 3 3 4 5 6 7 6 5 4 3 3 2 2 3 3 2 2 2 2
2 3 4 5 3 3 4 7 5 2 4 4 3 2 2 1 1 1 2 3 3 3 4 3 4 4 4 3 2 2 2 2 4 5 6 7 7 6 4 4 3 3 2 2 2 3 2 2 3
2 3 5 6 5 2 3 5 3 1 1 1 1 1 1 1 1 2 2 2 3 3 4 4 4 4 4 4 3 2 2 2 2 3 4 6 7 6 6 5 4 4 3 3 4 4 4 3 3
4 3 5 6 3 3 1 3 4 3 2 1 1 1 1 2 2 2 3 3 3 4 4 4 4 4 4 4 2 2 2 4 4 4 4 6 7 6 6 6 5 4 3 3 4 4 3 5 5
3 3 4 3 2 2 1 2 5 1 2 4 3 3 2 2 2 2 3 3 4 4 4 3 4 4 4 4 3 2 3 3 3 4 4 5 6 6 6 5 5 4 3 4 4 4 4 4 5
2 1 1 2 2 2 2 3 4 3 4 4 4 4 3 2 2 3 3 3 4 4 3 3 4 5 4 4 4 3 4 4 4 5 5 4 4 5 5 5 5 4 4 4 4 5 5 5 5
3 3 3 4 3 4 1 2 6 4 3 4 5 5 3 2 3 3 4 5 5 5 5 4 4 5 5 5 4 4 4 4 5 5 5 5 5 5 5 5 5 5 5 5 5 5 6 6 7
1 2 3 3 4 4 2 5 5 2 2 2 3 3 2 3 3 4 4 4 5 5 5 4 4 5 5 5 5 4 5 4 4 5 5 5 5 5 6 6 5 5 5 6 5 4 5 5 6
2 1 1 3 0 3 5 5 6 2 2 2 2 2 3 3 4 5 5 4 4 5 5 5 5 5 5 5 5 5 4 4 5 5 5 5 5 6 6 6 5 5 5 5 5 4 5 4 4
2 4 3 3 1 4 6 5 4 4 4 3 3 4 4 4 5 5 5 5 5 5 5 5 4 5 6 5 5 5 5 5 5 5 5 5 6 6 6 6 5 5 5 5 4 4 4 4 4
2 2 2 2 3 3 4 6 4 6 4 4 5 5 5 5 6 6 6 6 6 5 5 5 5 5 5 5 5 5 5 5 5 4 5 5 6 6 6 6 5 5 5 4 4 4 4 4 4
3 4 4 3 3 3 3 7 2 3 2 3 4 5 5 5 5 5 5 5 5 5 5 5 5 5 6 5 5 5 5 5 5 5 5 5 6 6 6 6 5 6 5 4 4 5 4 4 5
Wind_Direction
341 359 49 51 61 60 212 245 201 6 94 69 66 99 118 115 116 140 337 21 12 3 0 27 38 44 49 54 61 68 74 80 87 89 91 93 95 95 95 98 98 97 96 96 96 95 93 91 91
341 16 51 61 104 167 248 236 200 201 167 102 58 68 83 77 45 61 8 351 14 19 22 30 49 50 51 53 58 65 71 76 81 84 88 92 93 95 94 94 96 98 99 97 96 96 95 93 93
11 45 76 83 131 191 203 207 202 350 39 69 76 54 84 43 24 40 337 357 27 29 31 36 55 54 54 56 55 59 64 71 76 77 81 87 90 95 95 93 93 96 100 100 98 98 100 98 97
56 47 58 88 196 223 204 191 168 123 26 36 96 76 64 33 10 343 12 37 48 32 35 41 54 57 59 58 56 55 58 65 72 75 75 79 87 93 94 93 94 95 98 103 102 101 102 102 101
54 76 80 127 225 231 236 322 124 119 57 21 88 110 78 15 24 42 62 54 58 36 38 48 52 52 58 58 55 54 57 60 65 70 73 74 81 88 92 94 95 95 96 98 99 104 104 104 104
55 70 119 204 223 244 268 357 118 93 91 42 83 110 123 22 31 46 56 56 47 43 41 51 52 50 50 53 53 54 57 57 56 61 66 70 74 83 88 95 99 98 95 99 97 99 106 108 105
101 105 164 181 194 238 254 91 127 139 117 31 111 112 119 23 19 53 58 56 47 45 41 40 45 48 47 46 45 51 56 57 55 54 58 64 70 78 87 89 99 101 97 93 95 97 104 111 108
110 107 136 184 182 222 345 71 78 105 152 48 95 123 155 300 23 76 71 64 57 47 38 33 35 37 38 41 44 46 49 54 55 52 50 56 65 72 83 85 92 102 102 97 93 94 97 106 110
82 91 191 201 187 199 13 48 24 36 89 54 52 84 76 122 91 87 70 52 47 45 36 31 30 31 31 37 44 46 46 46 50 52 49 51 56 65 71 76 84 95 107 105 100 97 95 96 106
74 162 203 206 160 142 44 46 27 85 63 48 41 34 79 100 95 89 81 69 48 35 31 27 26 26 30 34 40 46 45 43 40 41 41 43 49 57 60 73 80 88 103 107 103 100 96 93 98
81 159 153 32 34 101 77 27 8 132 170 206 172 117 117 103 93 89 81 82 71 53 37 25 22 26 28 26 34 37 40 39 37 35 33 39 41 49 53 62 70 77 90 95 95 92 91 94 100
86 36 71 353 352 18 5 61 17 347 251 264 138 135 135 127 115 102 89 51 40 45 30 22 19 23 25 27 29 32 30 29 26 23 26 34 32 29 40 44 53 76 87 88 91 93 93 91 98
87 66 32 40 52 40 45 338 261 279 311 68 115 118 128 133 124 97 84 65 45 35 19 10 16 20 20 24 23 24 16 13 7 14 17 20 26 12 14 30 46 70 90 95 96 99 96 89 92
101 86 21 0 346 339 71 300 284 257 355 93 119 130 139 139 127 81 47 36 27 15 4 357 14 16 20 18 12 10 7 358 356 358 352 1 14 4 358 353 29 61 102 122 127 131 115 101 100
88 41 3 351 320 271 72 299 245 230 121 127 148 153 153 130 113 96 71 46 20 3 358 358 11 9 12 12 5 3 357 354 343 336 332 341 349 344 349 321 291 194 157 143 122 128 115 114 104
47 53 348 326 35 260 157 263 268 197 168 181 178 168 161 133 100 62 45 42 20 12 3 358 1 2 3 5 359 355 349 347 337 324 319 327 330 326 312 308 270 237 185 154 152 158 156 163 162
35 6 279 300 346 95 192 255 272 258 184 189 177 172 170 148 58 19 21 31 21 17 6 358 354 356 355 355 357 349 344 343 334 325 320 317 314 317 298 294 271 227 187 187 189 193 180 181 183
253 245 261 267 301 252 238 260 276 251 184 185 180 182 177 179 240 340 4 11 14 16 10 6 1 356 352 353 358 353 349 345 339 331 321 316 315 309 310 297 279 237 206 212 193 201 196 180 176
212 225 260 270 281 269 245 264 275 240 183 192 193 194 195 218 239 22 12 6 13 14 10 4 4 354 356 349 338 333 327 327 328 330 329 324 316 305 304 305 283 260 225 216 200 192 189 178 152
228 261 276 294 309 285 268 273 269 221 198 191 189 203 216 270 355 3 3 14 13 358 354 354 353 343 343 333 311 289 300 303 310 318 325 323 321 316 299 305 281 268 256 229 210 191 186 190 173
266 235 261 286 311 292 308 298 271 285 174 116 141 216 215 248 289 320 332 343 351 348 344 342 334 333 333 334 341 345 341 334 329 328 326 324 318 311 307 296 279 259 244 231 227 209 200 196 199
275 258 274 283 296 293 12 287 274 269 262 271 281 289 271 287 302 317 330 327 325 322 332 336 333 332 335 340 341 318 315 310 306 308 308 312 311 306 303 299 288 262 249 236 236 224 218 198 201
258 297 284 278 231 304 326 223 284 332 266 269 274 275 272 269 276 303 311 308 315 322 331 328 339 340 340 337 318 298 291 296 306 311 308 314 314 312 308 303 298 285 264 246 238 243 225 216 209
301 352 358 27 90 276 233 191 280 240 239 269 276 274 276 290 301 313 317 326 333 334 333 334 344 340 343 334 323 313 296 299 306 309 307 313 311 312 315 315 302 293 281 259 250 240 232 225 222
30 55 14 351 348 260 205 206 254 259 243 247 264 270 276 286 304 311 324 327 330 334 329 330 336 330 334 332 323 314 307 297 288 293 294 301 303 303 304 307 304 301 293 278 262 246 242 229 223
229 133 150 233 260 292 311 239 255 261 276 271 266 264 281 297 303 302 303 307 314 320 325 320 318 317 319 318 314 312 308 302 295 292 290 287 287 289 299 300 299 299 295 285 270 253 249 239 227
126 136 148 141 315 289 276 286 300 273 298 307 315 314 294 297 306 305 307 309 311 312 310 309 305 309 311 310 311 307 303 297 294 293 292 290 286 293 298 297 294 294 290 283 274 262 255 250 239
94 142 104 133 225 283 293 277 261 263 267 292 303 295 298 312 313 311 316 315 314 309 304 311 303 299 304 305 304 306 303 298 291 294 293 293 293 296 294 294 293 293 289 285 273 270 270 259 253
109 108 116 131 166 189 272 273 229 216 217 237 268 282 290 301 303 305 309 314 318 318 313 314 311 310 308 305 304 304 303 300 297 294 293 292 293 296 294 292 292 291 288 281 272 269 269 263 267
173 182 160 173 230 198 221 272 287 235 238 236 269 290 296 297 300 303 307 317 319 319 320 318 312 305 300 297 298 296 298 302 301 298 296 293 290 293 293 296 290 287 283 277 268 268 265 257 260
Height
1503 1504 1506 1509 1513 1527 1529 1526 1524 1523 1524 1524 1524 1524 1526 1530 1534 1539 1535 1532 1533 1533 1534 1534 1535 1537 1537 1538 1539 1539 1540 1541 1542 1542 1543 1543 1544 1544 1545 1545 1545 1546 1546 1547 1547 1547 1547 1548 1548
1503 1505 1508 1509 1520 1532 1529 1524 1524 1523 1523 1523 1524 1525 1527 1530 1532 1533 1532 1532 1533 1533 1534 1534 1535 1537 1537 1538 1539 1540 1540 1541 1542 1543 1543 1544 1544 1545 1545 1545 1546 1546 1547 1547 1548 1548 1549 1549 1549
1504 1505 1508 1513 1524 1527 1524 1522 1523 1523 1523 1523 1525 1526 1529 1531 1532 1532 1532 1532 1533 1534 1534 1535 1536 1537 1537 1538 1539 1540 1541 1541 1542 1543 1544 1544 1545 1545 1545 1546 1546 1547 1548 1548 1548 1549 1550 1550 1550
1505 1507 1509 1519 1524 1522 1522 1522 1522 1522 1523 1524 1525 1528 1530 1533 1533 1533 1532 1533 1533 1534 1534 1535 1536 1537 1537 1538 1539 1540 1540 1541 1542 1543 1544 1544 1545 1545 1546 1546 1547 1547 1548 1549 1549 1550 1550 1551 1551
1505 1506 1515 1524 1522 1521 1521 1521 1521 1522 1524 1525 1526 1528 1531 1533 1532 1532 1532 1533 1533 1533 1534 1535 1536 1536 1537 1538 1538 1539 1540 1541 1542 1543 1543 1544 1544 1545 1546 1546 1547 1548 1548 1549 1550 1550 1551 1552 1552
1506 1508 1521 1525 1522 1521 1522 1522 1522 1523 1525 1526 1527 1529 1531 1532 1532 1532 1532 1533 1533 1533 1534 1535 1535 1536 1536 1537 1538 1539 1540 1540 1541 1542 1543 1543 1544 1545 1545 1546 1547 1548 1549 1549 1550 1551 1551 1552 1553
1507 1514 1521 1523 1523 1523 1522 1522 1523 1524 1525 1527 1527 1529 1531 1531 1532 1532 1533 1533 1534 1534 1534 1535 1535 1536 1536 1537 1537 1538 1539 1540 1540 1541 1542 1543 1544 1544 1545 1546 1547 1547 1548 1549 1550 1551 1552 1552 1553
1507 1514 1521 1524 1523 1523 1522 1522 1523 1524 1525 1527 1528 1529 1530 1531 1531 1532 1533 1533 1533 1533 1534 1534 1535 1535 1536 1536 1537 1537 1538 1539 1540 1540 1541 1542 1543 1544 1544 1545 1546 1547 1548 1549 1550 1551 1552 1552 1553
1508 1518 1522 1522 1522 1522 1522 1523 1524 1525 1525 1526 1528 1529 1530 1531 1531 1531 1532 1532 1533 1533 1533 1533 1533 1534 1535 1536 1536 1537 1537 1538 1539 1539 1540 1541 1542 1543 1543 1544 1545 1546 1547 1548 1550 1551 1551 1552 1553
1510 1520 1520 1520 1520 1522 1522 1523 1524 1525 1525 1526 1527 1528 1529 1530 1530 1530 1530 1530 1531 1531 1532 1532 1533 1533 1534 1534 1535 1536 1536 1537 1537 1538 1539 1540 1540 1541 1542 1543 1544 1545 1546 1547 1549 1550 1551 1552 1552
1513 1519 1520 1521 1521 1521 1522 1524 1524 1524 1526 1526 1526 1527 1528 1529 1529 1529 1530 1530 1530 1531 1531 1532 1532 1532 1533 1533 1533 1534 1535 1535 1536 1537 1537 1538 1539 1540 1540 1541 1543 1544 1545 1546 1547 1549 1550 1551 1551
1517 1519 1520 1521 1521 1521 1523 1524 1525 1524 1525 1525 1526 1526 1527 1528 1528 1528 1529 1529 1530 1531 1531 1531 1531 1531 1532 1532 1532 1533 1533 1533 1534 1535 1536 1536 1537 1538 1538 1540 1541 1542 1543 1544 1545 1547 1548 1549 1550
1518 1520 1521 1522 1521 1522 1523 1524 1524 1524 1523 1524 1524 1525 1525 1526 1527 1528 1529 1529 1529 1530 1530 1530 1530 1531 1531 1531 1531 1531 1532 1532 1533 1534 1534 1535 1535 1536 1537 1537 1539 1540 1541 1542 1543 1545 1546 1547 1549
1519 1520 1521 1522 1521 1522 1523 1523 1524 1522 1522 1522 1522 1523 1524 1525 1526 1527 1527 1528 1528 1529 1529 1529 1530 1530 1530 1530 1530 1530 1530 1531 1531 1532 1532 1533 1533 1534 1534 1535 1536 1537 1539 1540 1541 1543 1544 1545 1546
1520 1521 1522 1522 1522 1522 1523 1523 1522 1521 1521 1521 1521 1522 1523 1524 1525 1525 1526 1527 1527 1528 1528 1528 1528 1529 1529 1529 1529 1529 1529 1529 1529 1530 1530 1531 1531 1531 1532 1533 1534 1535 1536 1537 1539 1540 1541 1543 1544
1521 1523 1525 1523 1522 1522 1526 1523 1520 1520 1520 1520 1520 1521 1522 1523 1524 1525 1525 1526 1526 1527 1527 1527 1527 1527 1527 1527 1527 1527 1527 1527 1527 1528 1528 1528 1528 1529 1530 1530 1531 1532 1533 1535 1536 1537 1538 1540 1541
1526 1528 1526 1524 1522 1522 1524 1521 1519 1518 1518 1518 1519 1520 1520 1521 1523 1524 1525 1525 1525 1525 1525 1525 1525 1525 1525 1525 1525 1525 1525 1525 1525 1525 1525 1525 1526 1526 1527 1527 1528 1529 1530 1532 1533 1534 1535 1536 1538
1529 1529 1527 1525 1523 1523 1523 1520 1518 1517 1517 1517 1518 1518 1519 1520 1521 1522 1523 1524 1524 1524 1524 1524 1524 1523 1523 1523 1523 1523 1523 1523 1523 1522 1522 1522 1523 1523 1524 1525 1525 1526 1527 1528 1529 1531 1532 1533 1535
1527 1527 1527 1525 1523 1523 1521 1519 1516 1515 1515 1516 1516 1517 1518 1519 1520 1521 1522 1522 1522 1523 1522 1522 1521 1521 1521 1520 1519 1519 1519 1519 1519 1519 1519 1519 1519 1520 1520 1521 1521 1522 1523 1524 1526 1527 1528 1530 1531
1526 1527 1527 1524 1522 1523 1520 1517 1514 1514 1514 1514 1515 1515 1516 1517 1518 1519 1520 1520 1520 1520 1520 1520 1519 1519 1518 1518 1517 1517 1516 1516 1516 1516 1516 1516 1516 1516 1516 1517 1517 1518 1519 1520 1522 1523 1524 1526 1527
1527 1529 1528 1526 1523 1521 1521 1516 1515 1514 1514 1514 1515 1515 1516 1516 1516 1517 1518 1518 1518 1518 1518 1518 1517 1517 1516 1516 1515 1514 1514 1513 1513 1512 1512 1512 1512 1512 1512 1513 1513 1515 1515 1516 1517 1519 1520 1521 1523
1526 1526 1526 1525 1527 1526 1524 1522 1514 1515 1514 1514 1514 1515 1515 1515 1515 1516 1516 1516 1516 1516 1516 1516 1515 1515 1514 1513 1512 1511 1510 1509 1509 1508 1508 1508 1508 1508 1508 1509 1509 1510 1511 1512 1513 1515 1516 1517 1518
1527 1526 1525 1525 1527 1530 1528 1527 1517 1517 1516 1515 1515 1514 1514 1514 1514 1515 1515 1515 1514 1514 1513 1513 1513 1512 1512 1511 1510 1509 1508 1507 1506 1505 1505 1504 1504 1504 1504 1504 1505 1505 1506 1507 1508 1509 1511 1512 1513
1527 1527 1527 1528 1530 1529 1527 1528 1519 1519 1517 1515 1514 1514 1513 1513 1513 1513 1514 1513 1513 1512 1511 1511 1510 1509 1509 1508 1507 1505 1504 1503 1502 1502 1501 1500 1500 1500 1500 1500 1500 1501 1501 1502 1503 1504 1506 1507 1508
1529 1531 1533 1530 1532 1526 1528 1528 1522 1516 1515 1514 1514 1513 1512 1513 1512 1512 1511 1511 1511 1510 1509 1508 1507 1506 1505 1504 1503 1502 1501 1500 1499 1498 1497 1496 1496 1495 1495 1495 1495 1496 1496 1497 1498 1499 1500 1502 1503
1533 1532 1535 1536 1534 1531 1530 1528 1519 1515 1514 1513 1513 1512 1512 1511 1511 1510 1510 1509 1508 1508 1507 1505 1504 1503 1502 1501 1500 1499 1498 1497 1496 1495 1494 1493 1492 1492 1491 1491 1491 1491 1492 1492 1493 1494 1495 1496 1497
1533 1536 1537 1542 1544 1543 1532 1528 1518 1513 1513 1512 1511 1511 1510 1510 1509 1508 1508 1507 1506 1505 1504 1503 1501 1500 1499 1497 1496 1495 1494 1493 1492 1491 1490 1489 1488 1488 1487 1487 1487 1487 1487 1488 1488 1488 1489 1490 1491
1534 1537 1541 1541 1538 1536 1531 1529 1521 1514 1512 1511 1511 1510 1509 1508 1507 1507 1505 1504 1503 1503 1502 1500 1498 1497 1496 1494 1493 1491 1490 1489 1488 1487 1485 1484 1484 1483 1483 1482 1482 1482 1482 1482 1483 1483 1484 1484 1486
1536 1538 1539 1543 1541 1541 1537 1524 1514 1512 1510 1511 1510 1509 1508 1507 1506 1504 1503 1502 1501 1500 1499 1497 1495 1493 1492 1490 1489 1487 1486 1485 1484 1482 1481 1480 1479 1478 1478 1477 1477 1477 1477 1477 1477 1477 1478 1479 1481
1534 1536 1539 1537 1541 1545 1544 1526 1511 1510 1509 1509 1509 1508 1507 1505 1504 1503 1501 1500 1498 1497 1495 1493 1491 1490 1488 1487 1485 1483 1482 1481 1479 1478 1477 1475 1474 1474 1473 1472 1472 1472 1472 1472 1472 1472 1473 1474 1475